Location: Mascot Post Office (historical)
(40.2645°N, 99.5462°W)
Time: 17:21:59
(UTC+00:00)

Spot 1 - Pass Details

Date: 14 July 2020
Orbit: 575 x 777 km, 98.7° (Epoch: 04 August)

Event Time Altitude Azimuth Distance (km) Brightness Sun altitude
Exits shadow 08:21:31 60° 264° (W) 822 4.4 -24.1°
Drops below altitude 10° 08:26:06 10° 339° (NNW) 2,149 7.4 -23.8°
Sets 08:28:19 0° 343° (NNW) 3,037 8.3 -23.6°
